DECAYED

STARLINK-5384, 54836 (Decayed)

Orbit data source: Space-Track

STARLINK-5384, 54836 was a payload satellite owned by SpaceX/Seattle (US) in LEO that was launched on Wed, 28 Dec 2022 UTC via an FALCON 9 launch vehicle from the Air Force Eastern Test Range (AFETR). Payload-class satellites include a variety of spacecraft equipped with specific instruments for various scientific and technological missions. These include communications satellites like Starlink; space stations such as the ISS; scientific satellites like the Hubble; Earth observation satellites from companies like Planet Labs, Umbra, and HawkEye 360; GPS; miniature CubeSats for education and research; and military/defense satellites.

Not visible in the next 10 days
Identifier
54836, 2022-177S
Orbit
Decayed
Country
Flag of USUS
Related business
Manufacturer
SpaceX/Seattle
Mission
Decayed Commercial Communications
Bus & Motor
STARLINK, Unknown motor
Mass
305 kg wet, ~290 kg dry
Launch date (UTC)
2022-12-28 (3 years ago)
Launch vehicle
FALCON 9
Launch site
Air Force Eastern Test Range (AFETR)
Object type
Payload
Rocket body
Debris
Shape & HBR
Box + 1 Pan, 10.1 m
Radar Cross Section
13.562 m², Large (>1 m²)

Expand to show TLE details & history
Last TLE update: 3 weeks ago

TLE from 3 weeks ago
0 STARLINK-5384
1 54836U 22177S   26154.52670146  .08274357  93516-5  52509-3 0  9993
2 54836  42.9897 334.2056 0008135 282.2709  77.7273 16.40760283190489
Epoch: 2026-06-03T12:38Z
TLE epoch observation values (Epoch: 2026-06-03T12:38:27.006Z)
Latitude
-0°
Longitude
-107.39097°
Altitude
162.417 km
Speed
7.811 km/s
True Right ascension
22h 16m 49s
True Declination
0° 00' 00"
Sunlit
Object was in daylight at epoch
Visualization orbit readout
Latitude
Unknown
Longitude
Unknown
Altitude
Unknown
Speed
Unknown
Apparent Right ascension
Unknown
Apparent Declination
Unknown
Sunlit
N/A
Visualization observer readout
Local Sidereal Time
21:24:32
Azimuth
Unknown
Elevation
Unknown
Doppler factor
Unknown
Orbital elements
Apogee altitude
171.146 km
Perigee altitude
160.499 km
Semi-major axis
6,543.959 km
Eccentricity
0.00081
Inclination
42.9897°
RAAN
334.2056°
Arg. of periapsis
282.2709°
True anomaly
77.81841°
Mean anomaly
77.7273°
Eccentric anomaly
77.77285°
Mean motion
4.09999 °/min
Orbital period
87.81 mins
BSTAR
0.00052509
Loading maneuver chart data...
Computing Atmospheric mass density...
Loading historical data...
Loading historical data...
Loading historical data...
Loading historical data...
Loading historical data...
Loading historical data...
Loading historical data...

Documentation

Showing up to 5 results
|